Location: Unspecified
(48.8656°N, 0.0000°E)
Time: 06:35:59
(UTC+00:00)

Vanguard 3 - Pass Details

Date: 24 June 2019
Orbit: 507 x 3264 km, 33.4° (Epoch: 17 July)

Event Time Altitude Azimuth Distance (km) Brightness Sun altitude
Rises 09:30:39 0° 214° (SW) 6,899 11.8 50.8°
Reaches altitude 10° 09:37:07 10° 202° (SSW) 5,509 11.6 51.8°
Maximum altitude 09:47:30 22° 160° (SSE) 3,752 11.4 53.3°
Drops below altitude 10° 09:54:59 10° 116° (ESE) 3,858 11.4 54.3°
Sets 09:58:27 0° 101° (E) 4,435 11.4 54.8°
